Skip Page Navigation
NASA JPL Caltech
NASA Logo - Jet Propulsion Laboratory + View the NASA Portal
+ Near-Earth Object (NEO) Program
Search JPL
JPL Home Earth Solar System Stars & Galaxies Technology
JPL Solar System Dynamics
BODIES ORBITS EPHEMERIDES TOOLS PHYSICAL DATA DISCOVERY FAQ SITE MAP
JPL Small-Body Database Browser
Search: [ help ]  
433 Eros (1898 DQ)
Classification: Amor [NEO]          SPK-ID: 2000433
Ephemeris | Orbit Diagram | Orbital Elements | Physical Parameters | Discovery Circumstances | Close-Approach Data ]

[ hide orbit diagram ]
Orbit Diagram
Note: Make sure you have Java enabled on your browser to see the applet. This applet is provided as a 3D orbit visualization tool. The applet was implemented using 2-body methods, and hence should not be used for determining accurate long-term trajectories (over several years or decades) or planetary encounter circumstances. For accurate long-term ephemerides, please instead use our Horizons system.
Orbit Viewer

Additional Notes: the orbits shown in the applet are color coded. The planets are white lines, and the asteroid/comet is a blue line. The bright white line indicates the portion of the orbit that is above the ecliptic plane, and the darker portion is below the ecliptic plane. Likewise for the asteroid/comet orbit, the light blue indicates the portion above the ecliptic plane, and the dark blue the portion below the ecliptic plane.

Orbit Viewer applet originally written and kindly provided by Osamu Ajiki (AstroArts), and further modified by Ron Baalke (JPL).


Orbital Elements at Epoch 2456400.5 (2013-Apr-18.0) TDB
Reference: JPL 421 (heliocentric ecliptic J2000)
 Element Value Uncertainty (1-sigma)   Units 
e .2226677322030184 1.0578e-08  
a 1.45783727594768 2.3777e-10 AU
q 1.133223955791384 1.5484e-08 AU
i 10.82872662501955 2.5057e-06 deg
node 304.3380307222211 5.6788e-06 deg
peri 178.7912204366847 7.7276e-06 deg
M 255.4748716498277 4.0492e-06 deg
tp 2456587.172443187617
(2013-Oct-21.67244319)
7.23e-06 JED
period 642.9275008628229
1.76
1.5729e-07
4.306e-10
d
yr
n .5599387170666554 1.3699e-10 deg/d
Q 1.782450596103975 2.9071e-10 AU
  Orbit Determination Parameters
   # obs. used (total)      4986  
   # delay obs. used      1  
   # Doppler obs. used      3  
   data-arc span      17948 days (49.14 yr)  
   first obs. used      1963-07-15  
   last obs. used      2012-09-03  
   planetary ephem.      DE405  
   SB-pert. ephem.      SB405-CPV-2  
   condition code      0  
   fit RMS      .49387  
   data source      ORB  
   producer      Otto Matic  
   solution date      2013-Apr-29 15:53:10  

Additional Information
 Earth MOID = .148425 AU 
 T_jup = 4.583 
[ show covariance matrix ]

Ephemeris | Orbit Diagram | Orbital Elements | Physical Parameters | Discovery Circumstances | Close-Approach Data ]

Physical Parameter Table
Parameter Symbol Value Units Sigma Reference Notes
absolute magnitude H 11.16 mag n/a PDS3 (MPC 17258)  
magnitude slope G 0.46   n/a PDS3 (MPC 17258) Fit
diameter diameter 16.84 km 0.06 Yeomans et al. (2000) Science v.289,pp.2085-2088 sphere having the measured volume of 2503 +/- 25 km^3
extent extent 34.4x11.2x11.2 km n/a Veverka et al. (2000) Science v.289,pp.2088-2097  
GM GM 4.463e-04 km^3/s^2 0.001e-04 Yeomans et al. (2000) Science v.289,pp.2085-2088  
bulk density density 2.67 g/cm^3 0.03 Yeomans et al. (2000) Science v.289,pp.2085-2088 based on a volume of 2503 +/- 25 km^3. Porosity 10-30%.
rotation period rot_per 5.270 h n/a Asteroid Lightcurve DataBase (Rev. 2013-May-01) Published Reference List:
[Campa, M. (1938) Mem. Soc. Astron. Ital. 11, 285-301.]
[Beyer, M. (1953) Astron. Nachr. 281, 121-130.]
[Cailliate, C. (1956) Publ. Observ. Lyon 3, fasc. 28.]
[Cristescu, C. (1976) Icarus 28, 39-42.]
[Dunlap, J.L. (1976) Icarus 28, 69-78.]
[Millis, R.L.; Bowell, E.; Thompson, D.T. (1976) Icarus 28, 53-67.]
[Scaltriti, F.; Zappala, V. (1976) Icarus 28, 29-35.]
[Taylor, R.C. (1985) Icarus 61, 3, 490-496.]
[Hicks, M.; Buratti, B.J.; Rabinowitz, D.L.; Genevier, G. (1999) Icarus 141, 411-414.]
[Yeomans, D.K.; Antreasian, P.G.; Bariiot, J.-P.; Chesley, S.R.; et al. (2000) Science 289, 2085-2087.]
[Kaasalainen, M.; Torppa, J.; Muinonen, K. (2001) Icarus 153, 37-51.]
[Miller, J.K.; Konopliv, A.S.; Antreasian, P.G.; Bordi, J.J.; et al. (2002) Icarus 155, 3-17.]
[Wolters, S.D.; Green, S.F.; McBride, N.; Davies, J.K. (2008) Icarus 193, 535-552.]
[Behrend, R. (2009) Observatoire de Geneve web site, http://obswww.unige.ch/~behrend/page_cou.html]
geometric albedo albedo 0.25   0.06 Veverka et al. (2000) Science v.289,pp.2088-2097 average
B-V BV .921 mag .021 EAR-A-5-DDR-UBV-MEAN-VALUES-V1.1 #obs=48; phase (min.=8.73, mean=34.88, max.=57.19) deg.
U-B UB .531 mag .027 EAR-A-5-DDR-UBV-MEAN-VALUES-V1.1 #obs=45; phase (min.=7.37, mean=34.55, max.=57.19) deg.
Tholen spectral type spec_T S   n/a EAR-A-5-DDR-TAXONOMY-V4.0 used 7 color indices; used ground-based radiometric albedo
SMASSII spectral type spec_B S   n/a EAR-A-5-DDR-TAXONOMY-V4.0 based on a high-resolution spectrum by Xu et al. (1995) or Bus and Binzel (2002)

433 Eros (1898 DQ)          Discovered 1898-Aug-13 by Witt, G. at Berlin
Independent discovery earlier the same night by A. Charlois, Nice.
Reference: DISCOVERY.DBLast Updated: 2003-08-29

[ show close-approach data ]
Alternate Designations
 1898 DQ = 1956 PC 
Ephemeris | Orbit Diagram | Orbital Elements | Physical Parameters | Discovery Circumstances | Close-Approach Data ]
ABOUT SSD CREDITS/AWARDS PRIVACY/COPYRIGHT GLOSSARY LINKS
FirstGov 2013-May-25 21:47 UT
(server date/time)  
NASA Home Page
Site Manager:   Donald K. Yeomans
Webmaster  Alan B. Chamberlin